Starlink 30357

operational
NORAD ID: 57750 Int'l Des: 2023-131 Owner: SPXS Country: US Constellation: starlink
LEOCIRCULAR

Über Starlink 30357

Beschreibung wird geladen...

Live-Position

3D-Globus wird geladen...

Nächste Überflüge

Höhenverlauf

Altitude vs Time

uPlot chart will show altitude changes over time

Zweizeiliger Elementsatz

1 57750U 23131U 25304.62861919 .00000386 00000-0 43619-4 0 9994
2 57750 43.0044 152.7615 0001577 275.3736 84.6926 15.02537907120514
Epoch: 31. Okt. 2025 • Age: 22 hours

Aktueller Status

Höhe 569.6 km
Geschwindigkeit 7.58 km/s
Subsatellitenpunkt -38.42°S, 150.79°E
Startdatum 1. Sept. 2023
Alter 2.1 years
Typ internet

Technische Details

Klassifizierung Payload
Masse 730.00 kg
Trockenmasse 700.00 kg
Gesamtmasse 730.00 kg
Länge 0.30 m
Durchmesser 4.10 m
Spannweite 29.00 m
Form Box + pan
Hersteller SPXS
Bus-Typ Starlink V2M
Phasenstatus In Orbit
Besitzer/Staat SPXS/US

Große Konstellationen

Loading constellations...